Location: Pittsburgh
(40.4410°N, 79.9960°W)
Time: 20:33:39
(UTC-04:00)

BlueWalker 3 - Pass Details

Date: 16 March 2026
Orbit: 449 x 457 km, 53.2° (Epoch: 12 April)

Event Time Altitude Azimuth Distance (km) Brightness Sun altitude
Exits shadow 05:21:01 28° 15° (NNE) 900 3.5 -24.9°
Maximum altitude 05:21:27 28° 29° (NNE) 880 3.6 -24.8°
Drops below altitude 10° 05:24:37 10° 91° (E) 1,594 5.4 -24.3°
Sets 05:26:56 0° 103° (ESE) 2,464 6.4 -23.8°
